Regional Weather Roundup
Issued by NWS

Home | Current Version | Previous Version | Graphics & Text | Print | Product List | Glossary On
Versions: 1 2 3 4 5 6 7 8 9 10 11 12 13 14 15 16 17 18 19 20 21 22 23 24 25 26 27 28
000
ASUS45 KCYS 170210
RWRWY

WYOMING REGIONAL WEATHER ROUNDUP
NATIONAL WEATHER SERVICE CHEYENNE WY
800 PM MDT WED AUG 16 2017

NOTE:  "FAIR" INDICATES FEW OR NO CLOUDS BELOW 12,000 FEET
WITH NO SIGNIFICANT WEATHER AND/OR OBSTRUCTIONS TO VISIBILITY.

WYZ001-170300-
YELLOWSTONE NATIONAL PARK

CITY           SKY/WX    TMP DP  RH WIND       PRES   REMARKS
LK YELLOWSTONE   N/A     57  34  41 CALM      30.25R
W YELLOWSTONE  NOT AVBL

$$
WYZ002>013-054>058-071-098>099-170300-
NORTHERN WYOMING

CITY           SKY/WX    TMP DP  RH WIND       PRES   REMARKS
JACKSON        FAIR      66  33  29 W6        30.15S
CODY           FAIR      71  43  36 CALM      30.04R
GREYBULL       FAIR      80  36  20 NE10      29.94R
WORLAND        MOCLDY    73  45  36 N3        29.96R
SHERIDAN       FAIR      69  46  43 SW7       29.95S
BUFFALO        FAIR      71  39  31 SW5       30.03S
GILLETTE       FAIR      71  37  28 SE9       29.99S
HULETT         FAIR      68  45  42 SE8       30.02S
NEWCASTLE      FAIR      72  32  23 CALM      30.03S

$$
WYZ014>020-022>026-101>103-170300-
CENTRAL WYOMING

CITY           SKY/WX    TMP DP  RH WIND       PRES   REMARKS
BIG PINEY      FAIR      63  43  48 W6        30.19S
PINEDALE       FAIR      66  36  32 CALM      30.20S
DUBOIS         FAIR      63  32  31 W5        30.17S
LANDER           N/A    N/A N/A N/A MISG      30.07R
RIVERTON       FAIR      75  36  24 E3        30.06R
CASPER         FAIR      68  39  34 S10       30.07R
DOUGLAS        FAIR      68  46  45 SE7       30.07R

$$
WYZ021-027>030-104>119-170300-
SOUTHERN WYOMING

CITY           SKY/WX    TMP DP  RH WIND       PRES   REMARKS
EVANSTON       FAIR      64  41  42 S9        30.22S
KEMMERER         N/A     66  32  28 NW9       30.22S
FORT BRIDGER   PTCLDY    66  36  32 SW10      30.24S
ROCK SPRINGS   FAIR      69  29  22 E3        30.17S
RAWLINS        FAIR      65  41  41 S7        30.19S
SARATOGA       FAIR      63  43  48 W3        30.22S
LARAMIE        MOCLDY    61  38  42 VRB7      30.23R
CHEYENNE       FAIR      65  47  52 SW12      30.18R
TORRINGTON     FAIR      69  46  43 SE6       30.05R
PINE BLUFFS    FAIR      63  43  48 E3        30.14R

$$




USA.gov is the U.S. government's official web portal to all federal, state and local government web resources and services.